Location: Auckland
(36.8670°S, 174.7670°E)
Time: 14:26:46
(UTC+12:00)

A-11 Canister half - Pass Details

Date: 23 July 2019
Orbit: 1526 x 1683 km, 47.3° (Epoch: 21 August)

Event Time Altitude Azimuth Distance (km) Brightness Sun altitude
Rises 12:53:13 0° 243° (WSW) 4,770 11.4 32.6°
Reaches altitude 10° 12:56:23 10° 239° (WSW) 3,806 10.9 32.6°
Maximum altitude 13:05:55 56° 161° (SSE) 1,892 9.6 32.3°
Drops below altitude 10° 13:15:44 10° 84° (E) 3,914 11.2 31.8°
Sets 13:19:02 0° 79° (E) 4,914 11.6 31.7°
